WI3X Weather Reports


time (UTC)temp
C
wind
direction
speed
KPH
gust
KPH
rain 1hr
cm
rain 24hr
cm
rain mn
cm
humidity
%
barometer
mb
20260507075025 11 334 8.0 17.7 0.00 1.04 0.05 78 1010.5
20260507074004 11 324 4.8 9.7 0.03 1.04 0.05 82 1010.6
20260507073025 11 318 3.2 12.9 0.03 1.04 0.05 85 1010.7
20260507072004 11 322 3.2 6.4 0.03 1.04 0.05 85 1010.6
20260507071024 11 328 1.6 8.0 0.03 1.04 0.05 86 1010.7
20260507070007 11 331 1.6 6.4 0.03 1.04 0.05 86 1010.7
20260507065004 11 331 0.0 3.2 0.03 1.04 0.05 85 1010.7
20260507064004 11 331 0.0 3.2 0.00 1.02 0.03 84 1010.8
20260507063004 11 331 0.0 4.8 0.00 1.02 0.03 84 1010.7
20260507062025 11 330 4.8 12.9 0.00 1.02 0.03 83 1010.8
20260507061003 11 335 3.2 12.9 0.00 1.02 0.03 84 1010.7
20260507060025 11 328 4.8 14.5 0.00 1.02 0.03 85 1010.7
20260507055004 11 345 1.6 12.9 0.00 1.02 0.03 84 1010.6
20260507054004 11 343 8.0 14.5 0.00 1.02 0.03 85 1010.5
20260507053025 11 341 6.4 14.5 0.00 1.02 0.03 85 1010.5
20260507052004 11 328 4.8 12.9 0.03 1.02 0.03 85 1010.7
20260507051003 11 344 6.4 19.3 0.03 1.02 0.03 85 1010.5
20260507050003 11 335 6.4 16.1 0.03 1.02 0.03 86 1010.6
20260507045004 12 332 6.4 14.5 0.03 1.02 0.03 85 1010.6
20260507044025 12 336 8.0 16.1 0.03 1.02 0.03 85 1010.5
20260507043005 12 343 6.4 16.1 0.03 1.02 0.03 84 1010.5
20260507042024 12 356 4.8 14.5 0.00 0.99 0.00 84 1010.5
20260507041004 12 339 9.7 16.1 0.00 0.99 0.00 83 1010.6
20260507040004 12 344 4.8 17.7 0.00 0.99 0.00 82 1010.4
20260507035004 12 356 3.2 8.0 0.00 0.99 0.99 82 1010.5
20260507034004 12 4 0.0 4.8 0.00 0.99 0.99 83 1010.3
20260507033004 13 21 3.2 14.5 0.00 0.99 0.99 83 1009.9
20260507032005 13 356 6.4 17.7 0.00 0.99 0.99 83 1010.0
20260507031004 13 343 8.0 16.1 0.00 0.99 0.99 84 1010.1
20260507030004 13 344 8.0 17.7 0.00 0.99 0.99 83 1010.2
20260507025004 13 346 3.2 8.0 0.00 0.99 0.99 84 1010.1
20260507024004 13 341 4.8 12.9 0.00 0.99 0.99 84 1010.2
20260507023004 13 358 6.4 14.5 0.00 0.99 0.99 84 1009.9
20260507022004 14 350 11.3 29.0 0.00 0.99 0.99 84 1009.6
20260507021003 14 342 9.7 19.3 0.00 0.99 0.99 84 1009.6
20260507020004 15 342 11.3 20.9 0.00 0.99 0.99 85 1009.9
20260507015004 15 335 8.0 16.1 0.00 0.99 0.99 85 1009.9
20260507014004 15 304 6.4 19.3 0.00 0.99 0.99 84 1010.0
20260507013004 15 291 4.8 17.7 0.00 0.99 0.99 84 1009.9
20260507012004 15 295 4.8 16.1 0.00 0.99 0.99 85 1009.7
20260507011005 15 284 4.8 17.7 0.00 0.99 0.99 85 1009.5
20260507010005 15 276 4.8 19.3 0.00 0.99 0.99 85 1009.6
20260507005004 15 270 1.6 16.1 0.00 0.99 0.99 86 1009.3
20260507004004 15 245 3.2 9.7 0.00 0.99 0.99 86 1009.3
20260507003004 15 266 3.2 16.1 0.00 0.99 0.99 86 1009.0
20260507002003 15 271 6.4 16.1 0.00 0.99 0.99 86 1009.0
20260507001025 16 269 3.2 11.3 0.00 0.99 0.99 87 1008.6
20260507000024 16 276 3.2 9.7 0.00 0.99 0.99 87 1008.4
20260506235004 16 285 3.2 12.9 0.00 0.99 0.99 87 1008.0
20260506234004 16 285 4.8 14.5 0.15 0.99 0.99 87 1007.8
20260506233004 17 306 6.4 17.7 0.15 0.99 0.99 87 1007.7
20260506232003 17 309 11.3 27.4 0.15 0.99 0.99 87 1007.7
20260506231003 18 284 4.8 16.1 0.15 0.99 0.99 89 1007.5
20260506230004 18 252 3.2 14.5 0.15 0.99 0.99 89 1007.4
20260506225003 18 260 4.8 16.1 0.15 0.99 0.99 88 1007.5
20260506224003 18 228 8.0 19.3 0.00 0.84 0.84 86 1007.3
20260506223003 18 211 12.9 22.5 0.00 0.84 0.84 85 1007.1
20260506222025 18 205 11.3 25.7 0.00 0.84 0.84 85 1007.0
20260506221004 18 207 16.1 27.4 0.00 0.84 0.84 83 1006.9
20260506220003 19 204 14.5 25.7 0.00 0.84 0.84 83 1006.8
20260506215004 19 206 11.3 20.9 0.00 0.84 0.84 83 1006.9
20260506214003 19 211 11.3 22.5 0.00 0.84 0.84 82 1006.7
20260506213004 20 214 12.9 20.9 0.00 0.84 0.84 83 1006.5
20260506212004 19 212 9.7 20.9 0.00 0.84 0.84 83 1006.4
20260506211003 20 214 11.3 22.5 0.00 0.84 0.84 84 1006.5
20260506210004 20 210 12.9 24.1 0.00 0.84 0.84 83 1006.4
20260506205004 20 208 12.9 22.5 0.00 0.84 0.84 84 1006.4
20260506204025 20 206 12.9 22.5 0.00 0.84 0.84 83 1006.4
20260506203004 20 218 8.0 17.7 0.00 0.84 0.84 82 1006.3
20260506202003 20 224 11.3 27.4 0.00 0.84 0.84 83 1006.3
20260506201003 19 224 9.7 19.3 0.00 0.84 0.84 84 1006.4
20260506200004 18 225 12.9 24.1 0.00 0.84 0.84 85 1006.4
20260506195003 18 224 9.7 22.5 0.00 0.84 0.84 85 1006.5
20260506194004 18 210 9.7 20.9 0.00 0.84 0.84 85 1006.6
20260506193003 18 220 14.5 29.0 0.00 0.84 0.84 86 1006.6
20260506192004 18 210 11.3 22.5 0.00 0.84 0.84 86 1006.6
20260506191003 18 211 16.1 30.6 0.00 0.84 0.84 87 1006.6
20260506190005 17 219 8.0 22.5 0.03 0.84 0.84 88 1006.7
20260506185003 17 211 9.7 25.7 0.03 0.84 0.84 88 1006.9
20260506184003 17 206 14.5 24.1 0.03 0.84 0.84 88 1007.0
20260506183004 17 204 14.5 29.0 0.03 0.84 0.84 89 1007.0
20260506182003 17 202 16.1 25.7 0.03 0.84 0.84 88 1007.1
20260506181004 17 203 14.5 24.1 0.03 0.84 0.84 89 1007.1
20260506180024 17 207 12.9 24.1 0.00 0.81 0.81 90 1007.2
20260506175003 17 202 17.7 27.4 0.00 0.81 0.81 89 1007.2
20260506174003 17 203 19.3 29.0 0.00 0.81 0.81 89 1007.2
20260506173003 17 204 16.1 27.4 0.00 0.81 0.81 90 1007.2
20260506172003 17 203 12.9 25.7 0.00 0.81 0.81 90 1007.2
20260506171003 16 207 12.9 24.1 0.00 0.81 0.81 90 1007.2
20260506170004 16 201 16.1 27.4 0.00 0.81 0.81 90 1007.2
20260506165003 16 198 12.9 24.1 0.00 0.81 0.81 90 1007.2
20260506164024 16 200 17.7 27.4 0.00 0.81 0.81 90 1007.2
20260506163003 16 198 12.9 24.1 0.00 0.81 0.81 91 1007.3
20260506162003 16 199 12.9 25.7 0.03 0.81 0.81 91 1007.3
20260506161003 16 197 11.3 24.1 0.05 0.81 0.81 91 1007.4
20260506160003 16 199 12.9 20.9 0.13 0.81 0.81 91 1007.5
20260506155003 16 196 14.5 22.5 0.18 0.81 0.81 91 1007.4
20260506154003 16 195 11.3 17.7 0.28 0.81 0.81 92 1007.4
20260506153004 16 181 12.9 20.9 0.33 0.81 0.81 92 1007.2
20260506152004 16 176 12.9 22.5 0.33 0.79 0.79 91 1007.1
20260506151004 16 176 9.7 17.7 0.33 0.76 0.76 91 1007.6
20260506150024 16 186 11.3 17.7 0.28 0.69 0.69 91 1007.7
20260506145003 16 196 12.9 22.5 0.30 0.64 0.64 90 1008.1
20260506144003 16 205 11.3 20.9 0.30 0.53 0.53 90 1008.5
20260506143003 16 203 11.3 24.1 0.28 0.48 0.48 89 1008.4
20260506142003 16 195 8.0 12.9 0.28 0.46 0.46 89 1008.0
20260506141003 16 194 8.0 12.9 0.25 0.43 0.43 89 1007.8
20260506140004 16 186 3.2 6.4 0.25 0.41 0.41 89 1007.7
20260506135003 16 197 4.8 11.3 0.20 0.33 0.33 88 1007.7
20260506134024 16 196 8.0 12.9 0.10 0.23 0.23 87 1007.9
20260506133003 17 185 8.0 17.7 0.10 0.20 0.20 86 1008.0
20260506132003 17 177 8.0 16.1 0.10 0.18 0.18 85 1007.9
20260506131024 17 184 11.3 19.3 0.10 0.18 0.18 84 1007.9
20260506130004 17 184 9.7 16.1 0.10 0.15 0.15 85 1007.9
20260506125003 17 185 8.0 12.9 0.08 0.13 0.13 84 1008.0
20260506124003 17 192 8.0 16.1 0.10 0.13 0.13 83 1008.1
20260506123003 17 206 4.8 11.3 0.08 0.10 0.10 83 1008.2
20260506122003 17 227 3.2 8.0 0.08 0.08 0.08 83 1008.4
20260506121003 17 228 6.4 14.5 0.08 0.08 0.08 81 1008.5
20260506120004 17 214 4.8 11.3 0.05 0.05 0.05 81 1008.4
20260506115003 17 200 4.8 11.3 0.05 0.05 0.05 79 1008.0
20260506114003 17 199 4.8 11.3 0.03 0.03 0.03 78 1007.9
20260506113003 18 197 11.3 16.1 0.03 0.03 0.03 74 1007.8
20260506112003 18 195 9.7 17.7 0.00 0.00 0.00 72 1007.7
20260506111003 18 198 11.3 20.9 0.00 0.00 0.00 70 1007.7
20260506110003 19 199 11.3 24.1 0.00 0.00 0.00 68 1007.5
20260506105003 19 196 9.7 29.0 0.00 0.00 0.00 69 1007.4
20260506104004 19 194 16.1 27.4 0.00 0.00 0.00 65 1007.3
20260506103003 19 197 14.5 32.2 0.00 0.00 0.00 64 1007.2
20260506102024 19 195 9.7 20.9 0.00 0.00 0.00 64 1007.0
20260506101025 19 189 11.3 19.3 0.00 0.00 0.00 63 1006.9
20260506100003 20 192 12.9 20.9 0.00 0.00 0.00 64 1006.8
20260506095003 20 198 11.3 20.9 0.00 0.00 0.00 64 1006.9
20260506094003 20 196 9.7 16.1 0.00 0.00 0.00 63 1006.9
20260506093025 20 193 11.3 19.3 0.00 0.00 0.00 61 1006.9
20260506092004 20 199 9.7 24.1 0.00 0.00 0.00 61 1007.1
20260506091003 20 206 12.9 27.4 0.00 0.00 0.00 60 1007.2
20260506090004 20 211 9.7 16.1 0.00 0.00 0.00 60 1007.3
20260506085003 20 212 9.7 24.1 0.00 0.00 0.00 59 1007.2
20260506084003 20 199 11.3 22.5 0.00 0.00 0.00 59 1007.1
20260506083024 20 203 9.7 17.7 0.00 0.00 0.00 59 1007.1
20260506082003 20 201 12.9 22.5 0.00 0.00 0.00 58 1007.2
20260506081003 20 195 14.5 24.1 0.00 0.00 0.00 57 1007.2